Regional Weather Roundup
Issued by NWS Upton, NY

Current Version | Previous Version | Text Only | Print | Product List | Glossary On
Versions: 1 2 3 4 5 6 7 8 9 10 11 12 13 14 15 16 17 18 19 20 21 22 23 24 25 26 27 28 29 30 31 32 33 34 35 36 37 38 39 40 41 42 43 44 45 46 47 48 49 50
139
ASUS41 KOKX 232005
RWROKX

Regional Weather Roundup
National Weather Service New York NY
400 PM EDT MON APR 23 2018

Note: "FAIR" indicates few or no clouds below 12,000 feet with no
significant weather and/or obstructions to visibility.

NYZ071-072-176-178-NJZ106-104-232100-
New York City Metro Area

CITY           SKY/WX    TMP DP  RH WIND       PRES   REMARKS
Central Park   FAIR      62  28  27 S9        30.46S
Bronx Bot Gard   N/A     63  30  29 S9        30.45S
Bronx Lehman C   N/A     63  30  29 S8          N/A
LaGuardia Arpt FAIR      63  29  27 S9        30.43F
Queens College   N/A     59  32  36 SE10        N/A
Kennedy Intl   FAIR      56  35  45 SE14      30.46F
Breezy Point     N/A     48 N/A N/A SE9         N/A
Brooklyn Coll    N/A     54  34  47 SE12        N/A
Staten Island    N/A     54  36  50 SE14        N/A
Newark/Liberty FAIR      60  35  39 SE8       30.43F
Teterboro      FAIR      65  28  24 S12G21    30.42S
$$

NYZ177-179-078>081-232100-
Long Island New York

CITY           SKY/WX    TMP DP  RH WIND       PRES   REMARKS
Jones Beach      N/A     48 N/A N/A SE9         N/A
Wantagh          N/A     54  36  50 SE10        N/A
Hempstead        N/A     55  34  44 SE3       30.47F
Matinecock Pt    N/A     54 N/A N/A NE7         N/A
Farmingdale    FAIR      55  34  45 SE10      30.46S
MacArthur/ISP  FAIR      56  32  40 SE12      30.46S
Stony Brook      N/A     63  23  22 S7          N/A
Shirley        FAIR      58  27  30 S8        30.47F
Mt Sinai Harb    N/A    N/A N/A N/A SE8         N/A
Westhampton    FAIR      57  18  21 S9        30.48F
East Hampton   FAIR      56  24  29 S8        30.45F
Southold         N/A     57  27  30 S9          N/A
Montauk          N/A     55  35  47 VRB5      30.48S
$$

NYZ052-065-067-232100-
Hudson Valley

CITY           SKY/WX    TMP DP  RH WIND       PRES   REMARKS
White Plains   FAIR      62  26  25 S9        30.42F
Larchmont Harb   N/A     50 N/A N/A NE12        N/A
Croton On Huds   N/A     64 N/A N/A E7          N/A
Somers           N/A     63  27  25 S9          N/A
Brewster         N/A     64  21  19 S10         N/A
Newburgh       SUNNY     68  19  15 SW7       30.39F
Montgomery     FAIR      69  18  14 VRB5      30.36F
Otisville        N/A     66  23  19 S8          N/A
Warwick          N/A     66  25  20 SE10        N/A
Suffern          N/A     64  21  19 S6          N/A
Poughkeepsie   FAIR      67  20  16 MISG      30.37F
Albany         FAIR      67   7   9 S5        30.37F
$$

NJZ001-105-106-008-010-013-015-019>022-104-232100-
New Jersey

CITY           SKY/WX    TMP DP  RH WIND       PRES   REMARKS
Newark/Liberty FAIR      60  35  39 SE8       30.43F
Teterboro      FAIR      65  28  24 S12G21    30.42S
Caldwell       FAIR      65  27  23 S13       30.42S
Somerville     FAIR      67  29  24 VRB3      30.38F
Linden         FAIR      58  33  38 S12       30.44
Perth Amboy      N/A     57 N/A N/A E16         N/A
Sussex         FAIR      69  24  18 SW7       30.38F
Andover          N/A     68  22  17 S8        30.38F
Trenton        FAIR      69  27  20 E6        30.39F
Millville      FAIR      63  26  24 VRB7G16   30.42F
Atlantic City  FAIR      64  26  23 S13       30.44F
Wrightstown    NOT AVBL
Toms River     FAIR      63  40  42 SE9       30.44F
Belmar         FAIR      56  39  53 SE12      30.46F
$$

PAZ047>061-062-071-232100-
Eastern Pennsylvania

CITY           SKY/WX    TMP DP  RH WIND       PRES   REMARKS
Philadelphia   FAIR      68  29  23 W14G20    30.41S
Allentown      FAIR      70  25  18 SW9       30.38F
Scranton       FAIR      69  19  15 S14G20    30.34F
$$

CTZ002-004>006-009-010-012-RIZ004-006-007-MAZ004-011-015-232100-
Southern New England

 In CT

CITY           SKY/WX    TMP DP  RH WIND       PRES   REMARKS
Bradley Intl   FAIR      68  13  12 S7        30.40F
Hartford       FAIR      67  22  18 VRB3      30.40F
Danbury        FAIR      62  24  23 SE12      30.42F
Wtrbury/Oxford FAIR      62  24  23 S14       30.41F
Norwalk Harbor   N/A     52 N/A N/A E10         N/A
Bridgeport     FAIR      61  27  27 SE8       30.44F
Meriden        FAIR      62  22  21 S13       30.42S
New Haven      FAIR      60  27  28 SE10      30.45F
Chester        FAIR      63  21  20 S9        30.44S
Groton         FAIR      54  34  46 S9        30.46S
Willimantic    FAIR      67  24  19 S15       30.40F

 In RI

CITY           SKY/WX    TMP DP  RH WIND       PRES   REMARKS
Providence     FAIR      60  25  26 S20       30.44S
Block Island   FAIR      51  35  54 S10       30.47F
Westerly       FAIR      56  27  32 S10       30.47S

In MA

CITY           SKY/WX    TMP DP  RH WIND       PRES   REMARKS
Boston         FAIR      53  28  38 E16       30.44F
Worcester      FAIR      62  17  17 S7        30.40F
Westfield      FAIR      67  12  12 SE6       30.38F
Provincetown   FAIR      53  26  35 NE9       30.46F
Nantucket      FAIR      56  17  21 E9        30.46S
$$

ANZ330-335-338-340-345-350-353-355-232100-
Coastal Marine Observations


STATION/POSITION TIME  SKY/WX   TEMP    WIND        PRES    VSBY  WAVE
                                AIR SEA DIR/SP/G                  HT/PER
                 (UTC)          (F)     (DEG/KT/KT) (MB)    (MI)  (FT/S)
NY Harb Entrance 1950            47 47  130/  8/ 10 1031.5          1/12
20 S Fire Island 1950            48 47  170/  8/ 10 1031.7          1/15
23 SSW Montauk P 1950            48 46  150/  6/  6 1031.8          1/15
15 E Barnegat Li 1930               49                N/A           1/15
Hudson Canyon    1950            54 51  200/  4/  4 1031.4          1/ 8
Kings Point      1936            57 46  220/ 13/ 14 1031.6
Execution Rocks  NOT AVBL
Western LI Sound NOT AVBL
Central LI Sound 1945            50     160/  8/ 10   N/A           0
Robbins Reef     1948            49     180/ 18/ 19 1031.6
$$


>>>>>>>>>>>>>>>>>>>>>>>>>>>> KEY <<<<<<<<<<<<<<<<<<<<<<<<<<<
>                                                          <
>     SKY/WX - Sky Condition/Present Weather               <
>     TMP    - Temperature in Fahrenheit                   <
>     DP     - Dew Point in Fahrenheit                     <
>     RH     - Relative Humidity in Percent                <
>     WIND   - Direction (from) and Speed in MPH           <
>     PRES   - Mean Sea Level Pressure (inches of Hg)      <
>     WCI    - Wind Chill Index                            <
>     VSB    - Visibility in Miles                         <
>     HX     - Heat Index                                  <
>     TC     - Temperature in Celsius                      <
>     VRB    - Varibale Wind Direction                     <
>                                                          <
>>>>>>>>>>>>>>>>>>>>>>>>>>>> KEY <<<<<<<<<<<<<<<<<<<<<<<<<<<




USA.gov is the U.S. government's official web portal to all federal, state and local government web resources and services.